Regional Weather Roundup
Issued by NWS Melbourne, FL

Current Version | Previous Version | Text Only | Print | Product List | Glossary On
Versions: 1 2 3 4 5 6 7 8 9 10 11 12 13 14 15 16 17 18 19 20 21 22 23 24 25 26 27
000
ASUS42 KMLB 211707
RWRMLB
HOURLY WEATHER ROUNDUP AROUND FLORIDA
NATIONAL WEATHER SERVICE OFFICE MELBOURNE FL
100 PM EDT TUE AUG 21 2018

CITY           SKY/WX    TMP DP  RH WIND       PRES   REMARKS
MELBOURNE      CLOUDY    89  75  63 E10       30.11F HX  99
FORT PIERCE    FAIR      88  75  65 E9        30.12F
ORLANDO INTL   PTSUNNY   90  72  55 VRB7      30.11F
DAYTONA BEACH  PTSUNNY   89  75  63 SW6       30.11F HX  99
VERO BEACH     FAIR      88  74  63 E10       30.12F
$$
...ELSEWHERE ACROSS CENTRAL FLORIDA...

CITY           SKY/WX    TMP DP  RH WIND       PRES   REMARKS
PATRICK AFB    FAIR      86  78  75 SE9       30.12F HX  98
KSC            FAIR      91  73  55 CALM      30.11F HX  98
CAPE CANAVERAL FAIR      90  74  60 SE10      30.10F HX  99
TITUSVILLE     PTSUNNY   90  72  55 VRB5      30.12F
ORLANDO EXEC   PTSUNNY   90  73  57 CALM      30.11F HX  98
LEESBURG       FAIR      89  75  63 S7        30.12F HX  99
SANFORD        FAIR      89  72  56 W5        30.10F
DELAND         FAIR      90  73  58 S5        30.11F HX  98
NEW SMYRNA BCH MOSUNNY   91  73  55 SE7       30.12F HX 100
ORMOND BEACH   MOSUNNY   88  73  62 NW6       30.11F
WINTER HAVEN   FAIR      90  72  55 SE7       30.13F
KISSIMMEE      FAIR      90  73  57 VRB5      30.12F HX  98
OKEECHOBEE     PTSUNNY   88  73  62 SW7       30.11F
TAMPA          FAIR      89  74  60 S8        30.12F HX  98
$$
...NORTHERN FLORIDA...

CITY           SKY/WX    TMP DP  RH WIND       PRES   REMARKS
PALM COAST     MOSUNNY   90  70  51 CALM      30.11F
ST AUGUSTINE   PTSUNNY   88  73  61 SW5       30.11F
OCALA          FAIR      89  72  56 S8        30.12F
GAINESVILLE    FAIR      91  75  59 S8        30.12F HX 101
JACKSONVILLE   PTSUNNY   90  74  59 SW6       30.08F HX  99
TALLAHASSEE    CLOUDY    82  72  71 SW10      30.11R
$$
...ALONG THE SOUTHEAST COAST TO THE KEYS...

CITY           SKY/WX    TMP DP  RH WIND       PRES   REMARKS
STUART         MOSUNNY   90  77  66 E9        30.14F HX 102
WEST PALM BCH  FAIR      90  73  57 SE8       30.12F HX  98
MIAMI          FAIR      89  71  55 VRB5      30.11F
KEY WEST       FAIR     N/A N/A N/A E12       30.11S
$$
...MARINE REPORTS...

STATION/POSITION TIME  TEMP    WIND        PRES    WAVE   SWELL
                       AIR SEA DIR/SP/G            HT/PER HT/PER
                 (UTC) (F)     (DEG/KT/KT) (MB)    (FT/S) (FT/S)
ST AUGUSTINE FP  1700   81 78  130/  9/ 10 1020.1F
20NM E CAPE CANA 1650   83     210/  4/  6 1020.5F   1/ 8   2/ 8
TRIDENT PIER     1648          140/  7/  9 1021.5F
SEBASTIAN INLET  1645   81 83  100/  7     1021.0S
4NM E PORT CANAV 1600      84                N/A     1
6NM NE FPR INLET 1600      84                N/A     1/ 8
SETTLEMENT PT GB 1700   84      30/  4/  6 1020.5F
$$




USA.gov is the U.S. government's official web portal to all federal, state and local government web resources and services.